Home   Weather   Wakefield   Past weeks
Flag for United Kingdom

Past Weather in Wakefield, England, United Kingdom — Yesterday and Last 2 Weeks

Now
54 °F

Passing clouds.


Feels Like: 52 °F
Forecast: 70 / 55 °F
Wind: 6 mph from East

Location: Leeds And Bradford

Current Time: Sep 21, 2019 at 11:00:33 pm

Latest Report: Sep 21, 2019 at 10:20 pm


Visibility: N/A

Pressure: 29.80 "Hg

Humidity: 88%

Dew Point: 50 °F

Location of WakefieldLocation

Past Weather in Wakefield — Graph

°F

Wakefield Temperature Yesterday

Maximum temperature yesterday: 68 °F (at 2:20 pm)
Minimum temperature yesterday: 48 °F (at 4:20 am)
Average temperature yesterday: 58 °F

High & Low Weather Summary for the Past Weeks

 TemperatureHumidityPressure
High70 °F (Sep 21, 1:50 pm)100% (Sep 9, 2:20 pm)30.60 "Hg (Sep 9, 2:20 pm)
Low41 °F (Sep 8, 2:50 am)40% (Sep 21, 2:50 pm)29.80 "Hg (Sep 9, 12:50 pm)
Average54 °F78%30.21 "Hg
* Reported Sep 6 9:20 pm — Sep 21 9:50 pm, Wakefield. Weather by CustomWeather, © 2019

Note: Actual official high and low records may vary slightly from our data, if they occured in-between our weather recording intervals... More about our weather records

Advertising

Wakefield Weather History for the Previous 24 Hours

Scroll right to see more
 ConditionsComfort  
Time TempWeatherWind HumidityBarometerVisibility
9:50 pm
Sat, Sep 21
54 °FPassing clouds.8 mph88%29.80 "HgN/A
9:20 pm54 °FPassing clouds.8 mph94%29.80 "HgN/A
8:50 pm55 °FPassing clouds.7 mph88%29.80 "HgN/A
8:20 pm57 °FPassing clouds.9 mph82%29.80 "HgN/A
7:50 pm59 °FClear.12 mph77%29.80 "Hg10 mi
7:20 pm59 °FPassing clouds.9 mph82%29.80 "HgN/A
6:50 pm61 °FPassing clouds.7 mph77%29.80 "HgN/A
6:20 pm64 °FPassing clouds.10 mph68%29.80 "HgN/A
5:50 pm68 °FSunny.13 mph56%29.80 "Hg10 mi
5:20 pm68 °FPassing clouds.14 mph49%29.83 "HgN/A
4:50 pm68 °FSunny.15 mph49%29.83 "Hg10 mi
4:20 pm70 °FSunny.16 mph43%29.83 "Hg10 mi
3:50 pm70 °FPassing clouds.14 mph46%29.86 "HgN/A
3:20 pm70 °FSunny.15 mph43%29.86 "Hg10 mi
2:50 pm70 °FSunny.17 mph40%29.86 "Hg10 mi
2:20 pm70 °FPassing clouds.16 mph43%29.89 "HgN/A
1:50 pm70 °FSunny.16 mph43%29.89 "Hg10 mi
1:20 pm68 °FSunny.16 mph46%29.92 "Hg10 mi
12:50 pm66 °FSunny.13 mph52%29.92 "Hg10 mi
12:20 pm64 °FSunny.13 mph60%29.95 "Hg10 mi
11:50 am63 °FSunny.14 mph68%29.95 "Hg10 mi
11:20 am61 °FSunny.13 mph72%29.98 "Hg10 mi
10:50 am59 °FPassing clouds.18 mph77%29.98 "HgN/A
10:20 am57 °FPassing clouds.16 mph82%29.98 "HgN/A
9:50 am57 °FPassing clouds.14 mph82%29.98 "HgN/A
9:20 am55 °FPassing clouds.13 mph88%30.01 "Hg5 mi
8:50 am54 °FClear.10 mph94%30.01 "Hg5 mi
8:20 am50 °FLight fog.5 mph100%30.01 "Hg2 mi
7:50 am50 °FFog.5 mph94%30.01 "Hg0 mi
7:20 am50 °FFog.5 mph94%30.01 "Hg0 mi
6:50 am50 °FFog.5 mph94%30.01 "Hg0 mi
6:20 am50 °FFog.3 mph94%30.04 "Hg0 mi
5:50 am48 °FFog.3 mph100%30.04 "Hg1 mi
5:20 am46 °FFog.6 mph100%30.04 "Hg1 mi
4:50 am48 °FFog.6 mph100%30.04 "Hg2 mi
4:20 am48 °FFog.9 mph100%30.07 "Hg2 mi
3:50 am48 °FPassing clouds.7 mph94%30.07 "HgN/A
3:20 am50 °FPassing clouds.7 mph94%30.07 "HgN/A
2:50 am50 °FClear.8 mph94%30.09 "Hg10 mi
2:20 am50 °FClear.9 mph94%30.09 "Hg10 mi
1:50 am50 °FClear.10 mph88%30.12 "Hg10 mi
1:20 am50 °FClear.9 mph88%30.12 "Hg10 mi
12:50 am52 °FClear.10 mph82%30.12 "Hg10 mi
12:20 am52 °FClear.12 mph88%30.12 "Hg10 mi
11:50 pm
Fri, Sep 20
54 °FClear.10 mph82%30.12 "Hg10 mi
11:20 pm54 °FClear.12 mph88%30.15 "Hg10 mi
Weather by CustomWeather, © 2019

See weather overview